TimeEDT,TemperatureF,Dew PointF,Humidity,Sea Level PressureIn,VisibilityMPH,Wind Direction,Wind SpeedMPH,Gust SpeedMPH,PrecipitationIn,Events,Conditions,WindDirDegrees,DateUTC
12:55 AM,46.4,44.6,93,30.02,10.0,Calm,Calm,-,N/A,,Clear,0,2012-10-21 04:55:00
1:35 AM,44.6,42.8,93,30.03,10.0,Calm,Calm,-,N/A,,Clear,0,2012-10-21 05:35:00
1:55 AM,44.6,42.8,93,30.04,10.0,Calm,Calm,-,N/A,,Clear,0,2012-10-21 05:55:00
2:15 AM,44.6,42.8,93,30.04,10.0,Calm,Calm,-,N/A,,Clear,0,2012-10-21 06:15:00
2:35 AM,44.6,42.8,93,30.04,10.0,Calm,Calm,-,N/A,,Clear,0,2012-10-21 06:35:00
2:55 AM,44.6,42.8,93,30.04,10.0,Calm,Calm,-,N/A,,Scattered Clouds,0,2012-10-21 06:55:00
3:15 AM,44.6,42.8,93,30.05,10.0,Calm,Calm,-,N/A,,Scattered Clouds,0,2012-10-21 07:15:00
3:35 AM,44.6,42.8,93,30.04,10.0,Calm,Calm,-,N/A,,Clear,0,2012-10-21 07:35:00
3:55 AM,42.8,41.0,93,30.04,10.0,Calm,Calm,-,N/A,,Clear,0,2012-10-21 07:55:00
4:15 AM,42.8,41.0,93,30.05,10.0,Calm,Calm,-,N/A,,Clear,0,2012-10-21 08:15:00
4:35 AM,42.8,41.0,93,30.05,10.0,Calm,Calm,-,N/A,,Clear,0,2012-10-21 08:35:00
4:55 AM,42.8,41.0,93,30.06,10.0,Calm,Calm,-,N/A,,Clear,0,2012-10-21 08:55:00
5:15 AM,42.8,41.0,93,30.07,10.0,Calm,Calm,-,N/A,,Clear,0,2012-10-21 09:15:00
5:35 AM,42.8,41.0,93,30.08,10.0,Calm,Calm,-,N/A,,Clear,0,2012-10-21 09:35:00
6:15 AM,41.0,41.0,100,30.10,10.0,Calm,Calm,-,N/A,,Clear,0,2012-10-21 10:15:00
6:55 AM,41.0,41.0,100,30.11,10.0,Calm,Calm,-,N/A,,Clear,0,2012-10-21 10:55:00
7:15 AM,41.0,39.2,93,30.12,10.0,Calm,Calm,-,N/A,,Clear,0,2012-10-21 11:15:00
7:35 AM,41.0,39.2,93,30.12,10.0,Calm,Calm,-,N/A,,Clear,0,2012-10-21 11:35:00
7:55 AM,41.0,39.2,93,30.13,10.0,Calm,Calm,-,N/A,,Clear,0,2012-10-21 11:55:00
8:15 AM,41.0,41.0,100,30.14,10.0,Calm,Calm,-,N/A,,Clear,0,2012-10-21 12:15:00
8:35 AM,42.8,41.0,93,30.15,10.0,Calm,Calm,-,N/A,,Clear,0,2012-10-21 12:35:00
8:55 AM,44.6,42.8,93,30.16,10.0,Calm,Calm,-,N/A,,Clear,0,2012-10-21 12:55:00
9:15 AM,48.2,42.8,82,30.17,10.0,Calm,Calm,-,N/A,,Clear,0,2012-10-21 13:15:00
9:35 AM,51.8,42.8,71,30.17,10.0,NNE,5.8,-,N/A,,Clear,20,2012-10-21 13:35:00
9:55 AM,51.8,41.0,67,30.18,10.0,North,6.9,-,N/A,,Clear,10,2012-10-21 13:55:00
10:35 AM,55.4,41.0,58,30.18,10.0,NNE,6.9,-,N/A,,Clear,20,2012-10-21 14:35:00
10:55 AM,57.2,37.4,48,30.18,10.0,NNE,5.8,-,N/A,,Clear,20,2012-10-21 14:55:00
11:15 AM,59.0,39.2,48,30.18,10.0,NNE,11.5,-,N/A,,Clear,20,2012-10-21 15:15:00
11:35 AM,59.0,37.4,45,30.19,10.0,North,5.8,-,N/A,,Clear,10,2012-10-21 15:35:00
11:55 AM,59.0,37.4,45,30.18,10.0,NNE,9.2,-,N/A,,Clear,20,2012-10-21 15:55:00
12:15 PM,59.0,37.4,45,30.18,10.0,Calm,Calm,-,N/A,,Clear,0,2012-10-21 16:15:00
12:35 PM,59.0,37.4,45,30.18,10.0,NNE,3.5,-,N/A,,Clear,20,2012-10-21 16:35:00
12:55 PM,60.8,37.4,42,30.17,10.0,NNE,5.8,-,N/A,,Clear,20,2012-10-21 16:55:00
1:15 PM,60.8,39.2,45,30.16,10.0,Calm,Calm,-,N/A,,Clear,0,2012-10-21 17:15:00
1:35 PM,62.6,37.4,39,30.15,10.0,NNW,8.1,-,N/A,,Clear,340,2012-10-21 17:35:00
1:55 PM,60.8,37.4,42,30.14,10.0,WNW,3.5,-,N/A,,Clear,300,2012-10-21 17:55:00
2:15 PM,62.6,37.4,39,30.13,10.0,NNE,4.6,-,N/A,,Clear,30,2012-10-21 18:15:00
2:35 PM,62.6,37.4,39,30.13,10.0,WNW,5.8,-,N/A,,Clear,290,2012-10-21 18:35:00
2:55 PM,62.6,35.6,37,30.13,10.0,NE,6.9,-,N/A,,Clear,40,2012-10-21 18:55:00
3:15 PM,62.6,35.6,37,30.13,10.0,WSW,4.6,-,N/A,,Clear,250,2012-10-21 19:15:00
3:35 PM,62.6,35.6,37,30.13,10.0,NE,3.5,-,N/A,,Clear,50,2012-10-21 19:35:00
3:55 PM,62.6,35.6,37,30.12,10.0,Calm,Calm,-,N/A,,Clear,0,2012-10-21 19:55:00
4:15 PM,64.4,35.6,34,30.13,10.0,NNW,5.8,-,N/A,,Clear,340,2012-10-21 20:15:00
4:35 PM,64.4,35.6,34,30.12,10.0,Calm,Calm,-,N/A,,Clear,0,2012-10-21 20:35:00
4:55 PM,62.6,35.6,37,30.13,10.0,Calm,Calm,-,N/A,,Clear,0,2012-10-21 20:55:00
5:15 PM,62.6,37.4,39,30.13,10.0,Calm,Calm,-,N/A,,Clear,0,2012-10-21 21:15:00
5:35 PM,62.6,35.6,37,30.14,10.0,Calm,Calm,-,N/A,,Clear,0,2012-10-21 21:35:00
5:55 PM,62.6,41.0,45,30.14,10.0,Calm,Calm,-,N/A,,Clear,0,2012-10-21 21:55:00
6:15 PM,59.0,44.6,59,30.14,10.0,Calm,Calm,-,N/A,,Clear,0,2012-10-21 22:15:00
6:35 PM,55.4,44.6,67,30.14,10.0,Calm,Calm,-,N/A,,Clear,0,2012-10-21 22:35:00
6:55 PM,53.6,44.6,72,30.15,10.0,Calm,Calm,-,N/A,,Clear,0,2012-10-21 22:55:00
7:15 PM,51.8,44.6,76,30.15,10.0,Calm,Calm,-,N/A,,Clear,0,2012-10-21 23:15:00
7:35 PM,51.8,44.6,76,30.16,10.0,Calm,Calm,-,N/A,,Clear,0,2012-10-21 23:35:00
7:55 PM,50.0,44.6,82,30.16,10.0,Calm,Calm,-,N/A,,Clear,0,2012-10-21 23:55:00
8:15 PM,50.0,44.6,82,30.17,10.0,Calm,Calm,-,N/A,,Clear,0,2012-10-22 00:15:00
8:35 PM,48.2,44.6,87,30.17,10.0,Calm,Calm,-,N/A,,Clear,0,2012-10-22 00:35:00
8:55 PM,48.2,44.6,87,30.17,10.0,Calm,Calm,-,N/A,,Clear,0,2012-10-22 00:55:00
9:15 PM,46.4,42.8,87,30.17,10.0,Calm,Calm,-,N/A,,Clear,0,2012-10-22 01:15:00
9:35 PM,46.4,44.6,93,30.18,10.0,Calm,Calm,-,N/A,,Clear,0,2012-10-22 01:35:00
9:55 PM,46.4,42.8,87,30.18,10.0,Calm,Calm,-,N/A,,Clear,0,2012-10-22 01:55:00
10:15 PM,46.4,42.8,87,30.18,10.0,Calm,Calm,-,N/A,,Clear,0,2012-10-22 02:15:00
10:35 PM,44.6,42.8,93,30.18,10.0,Calm,Calm,-,N/A,,Clear,0,2012-10-22 02:35:00
10:55 PM,44.6,42.8,93,30.18,10.0,Calm,Calm,-,N/A,,Clear,0,2012-10-22 02:55:00
11:15 PM,44.6,42.8,93,30.18,10.0,Calm,Calm,-,N/A,,Clear,0,2012-10-22 03:15:00
11:35 PM,44.6,42.8,93,30.18,10.0,Calm,Calm,-,N/A,,Clear,0,2012-10-22 03:35:00
11:55 PM,44.6,42.8,93,30.19,10.0,Calm,Calm,-,N/A,,Clear,0,2012-10-22 03:55:00